Simultaneous Nadir Overpasses (SNOs) Predictions

Prediction of SNOs between METOP-C and LANDSAT-8 Satellite Orbit:

Table of predicted SNOs for the next 14.0 days since TLE Epoch: 7/26/2025
Index Date (METOP-C) Time (METOP-C) Lat,Lon (METOP-C) SZA (METOP-C ) Date (LANDSAT-8) Time (LANDSAT-8) Lat,Lon (LANDSAT-8) SZA (LANDSAT-8 ) Distance(km) Time Diff (sec)
1 07/26/2025 20:35:13 -81.09, 90.57 116.21 07/26/2025 20:36:12 -81.10, 90.58 116.18 0.48 59
2 07/26/2025 21:25:51 81.12,-101.25 63.91 07/26/2025 21:25:37 81.13,-101.33 63.90 1.38 14
3 07/29/2025 16:09:35 -81.08, 156.67 115.60 07/29/2025 16:10:28 -81.08, 156.76 115.57 1.66 53
4 07/29/2025 17:00:13 81.11, -35.19 64.52 07/29/2025 16:59:53 81.11, -35.17 64.51 0.42 20
5 08/01/2025 11:43:55 -81.09,-136.55 114.85 08/01/2025 11:44:42 -81.10,-136.47 114.82 1.47 47
6 08/01/2025 12:34:33 81.12, 31.57 65.26 08/01/2025 12:34:07 81.13, 31.57 65.25 0.50 26
7 08/04/2025 07:18:15 -81.09, -70.19 114.12 08/04/2025 07:18:56 -81.09, -70.20 114.11 0.41 41
8 08/04/2025 08:08:53 81.12, 97.90 65.99 08/04/2025 08:08:21 81.11, 97.81 65.96 1.58 32
9 08/07/2025 02:52:36 -81.09, -3.89 113.36 08/07/2025 02:53:10 -81.09, -3.71 113.33 3.23 34



Historial Predications of SNOs between METOP-C and LANDSAT-8
